Location: Waco, TX
(31.5480°N, 97.1670°W)
Time: 22:57:50
(UTC-05:00)

ISS - Pass Details

Date: 17 April 2018
Orbit: 403 x 406 km, 51.6° (Epoch: 23 April)

Event Time Altitude Azimuth Distance (km) Brightness Sun altitude
Rises 10:07:58 0° 195° (SSW) 2,298 0.0 39.3°
Reaches altitude 10° 10:10:23 10° 177° (S) 1,445 -0.8 39.8°
Maximum altitude 10:12:50 20° 128° (SE) 991 -0.6 40.4°
Drops below altitude 10° 10:15:19 10° 78° (ENE) 1,453 -0.1 40.9°
Sets 10:17:44 0° 61° (ENE) 2,317 0.5 41.4°
